P/2023 B1 ( PanSTARRS )

Japanese version
Home page
Updated on March 11, 2025

---------------------------------------------------------------------

* Profile

Discovery Date January 21, 2023
Magnitude 17.7 mag
Discoverer Pan-STARRS 2 telescope (Haleakala)

* Pictures

* Orbital Elements

Epoch 2024 Mar. 31.0 TT = JDT 2460400.5
T 2023 May 1.16708 TT                                   Rudenko
q   6.1402584            (2000.0)            P               Q
n   0.05256964     Peri.   81.54224     -0.90906889     -0.33563339
a   7.0574216      Node    78.56377     +0.20730257     -0.87832845
e   0.1299573      Incl.   14.58813     +0.36141306     -0.34042525
P  18.7
>From 510 observations 2023 Jan. 13-2024 Mar. 18, mean residual 0".5.

* Magnitudes Graph

        m1 =    8.0 + 5 log d +  10.0 log r           [    ,-110]  (             - 2023 Jan.  8)
        m1 = -540   + 5 log d + 700   log r(t + 300)  [-110, 112]  (2023 Jan.  8 - 2023 Aug. 18)
        m1 =    8.0 + 5 log d +  10.0 log r           [ 112,    ]  (2023 Aug. 18 -             )

---------------------------------------------------------------------

The orbital elements are published on M.P.E.C. 2024-F34.
The magnitudes graphs are made with Comet for Windows.

---------------------------------------------------------------------

Copyright(C) Seiichi Yoshida (comet@aerith.net). All rights reserved.